Regional Weather Roundup
Issued by NWS

Home | Current Version | Previous Version | Graphics & Text | Print | Product List | Glossary On
Versions: 1 2 3 4 5 6 7 8 9 10 11 12 13 14 15 16 17 18 19 20 21 22 23 24 25 26 27 28 29 30 31 32 33 34 35 36 37 38 39 40 41 42 43 44 45 46 47 48 49 50
000
ASUS43 KLOT 171800
RWRIL

ILLINOIS REGIONAL WEATHER ROUNDUP
NATIONAL WEATHER SERVICE CHICAGO/ROMEOVILLE IL
1200 PM CST WED DEC 17 2014

NOTE: "FAIR" INDICATES FEW OR NO CLOUDS BELOW 12,000 FEET WITH NO
SIGNIFICANT WEATHER AND/OR OBSTRUCTIONS TO VISIBILITY.

* THESE STATIONS ARE NOT UNDER NWS QUALITY CONTROL. THEY ALSO MAY NOT
  REPORT WEATHER SUCH AS PRECIPITATION OR FOG.

ILZ001-002-007-009-015-016-024-171900-
NORTHWEST ILLINOIS

CITY           SKY/WX    TMP DP  RH WIND       PRES   REMARKS
MOLINE         PTSUNNY   26  17  68 W12       30.29F WCI  16
6HR MIN TEMP:  22; 6HR MAX TEMP:  26;

STERLING*      CLOUDY    25  18  74 W14       30.27F WCI  13
$$

ILZ003-004-008-010-011-017-018-171900-
NORTH CENTRAL ILLINOIS

CITY           SKY/WX    TMP DP  RH WIND       PRES   REMARKS
ROCKFORD       FLURRIES  25  16  68 W13G18    30.26F WCI  14
6HR MIN TEMP:  24; 6HR MAX TEMP:  25; 6HR PCP: TRACE;

$$

ILZ005-006-012>014-019>023-171900-
NORTHEAST ILLINOIS

CITY           SKY/WX    TMP DP  RH WIND       PRES   REMARKS
CHICAGO-OHARE  CLOUDY    26  17  68 W10       30.22F WCI  16
6HR MIN TEMP:  24; 6HR MAX TEMP:  26;

CHICAGO-MIDWAY CLOUDY    28  18  66 W12       30.23F WCI  18
6HR MIN TEMP:  26; 6HR MAX TEMP:  28; 6HR PCP: TRACE;

AURORA         CLOUDY    26  18  71 W15       30.24F WCI  14
6HR MIN TEMP:  25; 6HR MAX TEMP:  27;

WAUKEGAN       CLOUDY    26  17  68 W7        30.20F WCI  18
6HR MIN TEMP:  25; 6HR MAX TEMP:  26;

DUPAGE AIRPORT CLOUDY    26  17  68 W10       30.22F WCI  16
6HR MIN TEMP:  24; 6HR MAX TEMP:  26;

WHEELING       CLOUDY    27  17  66 W12       30.23F WCI  17
6HR MIN TEMP:  25; 6HR MAX TEMP:  27;

NORTHERLY ISL    N/A     27  18  69 NW10        N/A  WCI  17
$$

LMZ740>746-171900-
SOUTHERN LAKE MICHIGAN

STATION/POSITION SKY/WX   TEMP    WIND        PRES    VSBY  WAVE
                          AIR SEA DIR/SP/G                  HT/PER
                          (F)     (DEG/KT/KT) (MB)    (MI)  (FT/S)
WAUKEGAN HARBOR            26     270/ 12/ 22   N/A
HARRISON CRIB              26     280/ 15/ 20   N/A
BURNHAM HARBOR             27     270/  7/ 12   N/A
CALUMET HARBOR             26     280/  8/ 14 1022.8F
$$

ILZ025>027-034>036-040-047-049-050-058-095>099-171900-
WEST-CENTRAL ILLINOIS

CITY           SKY/WX    TMP DP  RH WIND       PRES   REMARKS
QUINCY         PTSUNNY   23  16  74 NW9       30.32F WCI  13
$$

ILZ028>032-037-038-041>044-048-051>054-059>061-171900-
CENTRAL ILLINOIS

CITY           SKY/WX    TMP DP  RH WIND       PRES   REMARKS
DECATUR        CLOUDY    23  19  85 MISG      30.30F
PEORIA         CLOUDY    25  16  68 NW6       30.30F WCI  18
6HR MIN TEMP:  21; 6HR MAX TEMP:  25;

SPRINGFIELD    CLOUDY    26  19  74 NW8       30.32F WCI  18
6HR MIN TEMP:  23; 6HR MAX TEMP:  26;

TAYLORVILLE    NOT AVBL
$$

ILZ033-039-045-046-055>057-062-063-171900-
EAST-CENTRAL ILLINOIS

CITY           SKY/WX    TMP DP  RH WIND       PRES   REMARKS
CHAMPAIGN      CLOUDY    23  18  81 W14       30.29F WCI  11
MATTOON        CLOUDY    26  20  77 NW12      30.29F WCI  16
$$

ILZ079-100>102-171900-
SOUTHWEST ILLINOIS

CITY           SKY/WX    TMP DP  RH WIND       PRES   REMARKS
BELLEVILLE     FAIR      38  26  61 VRB6      30.29F WCI  33
CAHOKIA*       FAIR      37  24  59 CALM      30.29F
$$

ILZ064>066-069>071-074>076-080>082-084>086-088>090-092>094-171900-
SOUTH-CENTRAL ILLINOIS

CITY           SKY/WX    TMP DP  RH WIND       PRES   REMARKS
CARBONDALE     PTSUNNY   34  24  67 W5        30.32F WCI  30
6HR MIN TEMP:  30; 6HR MAX TEMP:  34;

MARION         PTSUNNY   34  27  75 NW9       30.32F WCI  26
MT. VERNON     CLOUDY    34  23  64 W5        30.30F WCI  30
$$

ILZ067-068-072-073-078-083-087-091-171900-
SOUTHEAST ILLINOIS

CITY           SKY/WX    TMP DP  RH WIND       PRES   REMARKS
LAWRENCEVILLE  CLOUDY    31  24  75 W9        30.31F WCI  23
$$

ABBREVIATIONS USED IN REMARKS
   TC - TEMPERATURE IN CELSIUS
  WCI - WIND CHILL INDEX
   HX - HEAT INDEX
  VSB - VISIBILITY
$$




USA.gov is the U.S. government's official web portal to all federal, state and local government web resources and services.